Time,TemperatureF,DewpointF,PressureIn,WindDirection,WindDirectionDegrees,WindSpeedMPH,WindSpeedGustMPH,Humidity,HourlyPrecipIn,Conditions,Clouds,dailyrainin,SoftwareType,DateUTC
2013-08-04 00:00:00,66.4,63.4,30.05,NNE,22,0.0,0.0,90,0.00,CLR,,0.00,WeatherDisplay:10.37,2013-08-04 04:00:00,
2013-08-04 00:01:00,66.4,63.4,30.05,NNE,22,0.0,0.0,90,0.00,CLR,,0.00,WeatherDisplay:10.37,2013-08-04 04:01:00,
2013-08-04 00:02:00,66.4,63.4,30.05,NNE,22,0.0,0.0,90,0.00,CLR,,0.00,WeatherDisplay:10.37,2013-08-04 04:02:00,
2013-08-04 00:07:00,66.4,63.4,30.06,NNE,22,0.0,0.0,90,0.00,CLR,,0.00,WeatherDisplay:10.37,2013-08-04 04:07:00,
2013-08-04 00:12:00,66.4,63.4,30.06,NNE,22,0.0,0.0,90,0.00,CLR,,0.00,WeatherDisplay:10.37,2013-08-04 04:12:00,
2013-08-04 00:17:00,66.4,63.7,30.06,NNE,22,0.0,0.0,91,0.00,CLR,,0.00,WeatherDisplay:10.37,2013-08-04 04:17:00,
2013-08-04 00:22:00,66.4,63.7,30.06,NNE,22,0.0,0.0,91,0.00,CLR,,0.00,WeatherDisplay:10.37,2013-08-04 04:22:00,
2013-08-04 00:27:00,66.4,63.7,30.06,NNE,22,0.0,0.0,91,0.00,CLR,,0.00,WeatherDisplay:10.37,2013-08-04 04:27:00,
2013-08-04 00:32:00,66.4,63.7,30.06,NNE,22,0.0,0.0,91,0.00,CLR,,0.00,WeatherDisplay:10.37,2013-08-04 04:32:00,
2013-08-04 00:37:00,66.4,63.7,30.06,NNE,22,0.0,0.0,91,0.00,CLR,,0.00,WeatherDisplay:10.37,2013-08-04 04:37:00,
2013-08-04 00:42:00,66.2,63.5,30.06,NNE,22,0.0,0.0,91,0.00,CLR,,0.00,WeatherDisplay:10.37,2013-08-04 04:42:00,
2013-08-04 00:47:00,66.2,63.5,30.06,NNE,22,0.0,0.0,91,0.00,CLR,,0.00,WeatherDisplay:10.37,2013-08-04 04:47:00,
2013-08-04 00:52:00,66.2,63.5,30.06,NNE,22,0.0,0.0,91,0.00,CLR,,0.00,WeatherDisplay:10.37,2013-08-04 04:52:00,
2013-08-04 00:57:00,66.2,63.5,30.06,NNE,22,0.0,0.0,91,0.00,CLR,,0.00,WeatherDisplay:10.37,2013-08-04 04:57:00,
2013-08-04 01:02:00,66.0,63.3,30.06,NNE,22,0.0,0.0,91,0.00,CLR,,0.00,WeatherDisplay:10.37,2013-08-04 05:02:00,
2013-08-04 01:07:00,66.0,63.3,30.06,NNE,22,0.0,0.0,91,0.00,CLR,,0.00,WeatherDisplay:10.37,2013-08-04 05:07:00,
2013-08-04 01:12:00,66.0,63.0,30.06,NNE,22,0.0,0.0,90,0.00,CLR,,0.00,WeatherDisplay:10.37,2013-08-04 05:12:00,
2013-08-04 01:17:00,66.0,63.0,30.06,NNE,22,0.0,0.0,90,0.00,CLR,,0.00,WeatherDisplay:10.37,2013-08-04 05:17:00,
2013-08-04 01:22:00,66.0,63.0,30.06,NNE,22,0.0,0.0,90,0.00,CLR,,0.00,WeatherDisplay:10.37,2013-08-04 05:22:00,
2013-08-04 01:27:00,65.8,62.8,30.06,NNE,22,0.0,0.0,90,0.00,CLR,,0.00,WeatherDisplay:10.37,2013-08-04 05:27:00,
2013-08-04 01:32:00,65.8,62.8,30.06,NNE,22,0.0,0.0,90,0.00,CLR,,0.00,WeatherDisplay:10.37,2013-08-04 05:32:00,
2013-08-04 01:37:00,65.7,62.6,30.06,NNE,22,0.0,0.0,90,0.00,CLR,,0.00,WeatherDisplay:10.37,2013-08-04 05:37:00,
2013-08-04 01:42:00,65.7,62.6,30.06,NNE,22,0.0,0.0,90,0.00,CLR,,0.00,WeatherDisplay:10.37,2013-08-04 05:42:00,
2013-08-04 01:47:00,65.5,62.5,30.05,NNE,22,0.0,0.0,90,0.00,CLR,,0.00,WeatherDisplay:10.37,2013-08-04 05:47:00,
2013-08-04 01:52:00,65.3,62.3,30.05,NNE,22,0.0,0.0,90,0.00,CLR,,0.00,WeatherDisplay:10.37,2013-08-04 05:52:00,
2013-08-04 01:57:00,65.1,62.4,30.05,NNE,22,0.0,0.0,91,0.00,CLR,,0.00,WeatherDisplay:10.37,2013-08-04 05:57:00,
2013-08-04 02:02:00,64.9,62.2,30.05,NNE,22,0.0,0.0,91,0.00,CLR,,0.00,WeatherDisplay:10.37,2013-08-04 06:02:00,
2013-08-04 02:07:00,64.9,62.2,30.05,NNE,22,0.0,0.0,91,0.00,CLR,,0.00,WeatherDisplay:10.37,2013-08-04 06:07:00,
2013-08-04 02:12:00,64.8,62.1,30.05,NNE,22,0.0,0.0,91,0.00,CLR,,0.00,WeatherDisplay:10.37,2013-08-04 06:12:00,
2013-08-04 02:17:00,64.8,62.1,30.05,NNE,22,0.0,0.0,91,0.00,CLR,,0.00,WeatherDisplay:10.37,2013-08-04 06:17:00,
2013-08-04 02:22:00,64.6,61.9,30.05,NNE,22,0.0,0.0,91,0.00,CLR,,0.00,WeatherDisplay:10.37,2013-08-04 06:22:00,
2013-08-04 02:27:00,64.6,61.9,30.05,NNE,22,0.0,0.0,91,0.00,CLR,,0.00,WeatherDisplay:10.37,2013-08-04 06:27:00,
2013-08-04 02:32:00,64.6,61.9,30.05,NNE,22,0.0,0.0,91,0.00,CLR,,0.00,WeatherDisplay:10.37,2013-08-04 06:32:00,
2013-08-04 02:37:00,64.6,61.9,30.05,NNE,22,0.0,0.0,91,0.00,CLR,,0.00,WeatherDisplay:10.37,2013-08-04 06:37:00,
2013-08-04 02:42:00,64.6,61.9,30.05,NNE,22,0.0,0.0,91,0.00,CLR,,0.00,WeatherDisplay:10.37,2013-08-04 06:42:00,
2013-08-04 02:47:00,64.6,61.9,30.06,NNE,22,0.0,0.0,91,0.00,CLR,,0.00,WeatherDisplay:10.37,2013-08-04 06:47:00,
2013-08-04 02:52:00,64.6,61.9,30.06,NNE,22,0.0,0.0,91,0.00,CLR,,0.00,WeatherDisplay:10.37,2013-08-04 06:52:00,
2013-08-04 02:57:00,64.6,61.9,30.06,NNE,22,0.0,0.0,91,0.00,CLR,,0.00,WeatherDisplay:10.37,2013-08-04 06:57:00,
2013-08-04 03:02:00,64.6,61.9,30.05,NNE,22,0.0,0.0,91,0.00,CLR,,0.00,WeatherDisplay:10.37,2013-08-04 07:02:00,
2013-08-04 03:07:00,64.6,61.9,30.06,NNE,22,0.0,0.0,91,0.00,CLR,,0.00,WeatherDisplay:10.37,2013-08-04 07:07:00,
2013-08-04 03:12:00,64.8,62.1,30.06,NNE,22,0.0,0.0,91,0.00,CLR,,0.00,WeatherDisplay:10.37,2013-08-04 07:12:00,
2013-08-04 03:17:00,64.8,62.1,30.06,NNE,22,0.0,0.0,91,0.00,CLR,,0.00,WeatherDisplay:10.37,2013-08-04 07:17:00,
2013-08-04 03:22:00,64.6,61.9,30.06,NNE,22,0.0,0.0,91,0.00,CLR,,0.00,WeatherDisplay:10.37,2013-08-04 07:22:00,
2013-08-04 03:27:00,64.6,61.9,30.05,NNE,22,0.0,0.0,91,0.00,CLR,,0.00,WeatherDisplay:10.37,2013-08-04 07:27:00,
2013-08-04 03:32:00,64.6,61.9,30.06,NNE,22,0.0,0.0,91,0.00,CLR,,0.00,WeatherDisplay:10.37,2013-08-04 07:32:00,
2013-08-04 03:37:00,64.6,61.9,30.06,NNE,22,0.0,0.0,91,0.00,CLR,,0.00,WeatherDisplay:10.37,2013-08-04 07:37:00,
2013-08-04 03:42:00,64.4,61.7,30.06,NNE,22,0.0,0.0,91,0.00,CLR,,0.00,WeatherDisplay:10.37,2013-08-04 07:42:00,
2013-08-04 03:47:00,64.2,61.5,30.05,NNE,22,0.0,0.0,91,0.00,CLR,,0.00,WeatherDisplay:10.37,2013-08-04 07:47:00,
2013-08-04 03:52:00,64.2,61.5,30.05,NNE,22,0.0,0.0,91,0.00,CLR,,0.00,WeatherDisplay:10.37,2013-08-04 07:52:00,
2013-08-04 03:57:00,64.2,61.8,30.06,NNE,22,0.0,0.0,92,0.00,CLR,,0.00,WeatherDisplay:10.37,2013-08-04 07:57:00,
2013-08-04 04:03:00,64.2,61.8,30.06,NNE,22,0.0,0.0,92,0.00,CLR,,0.00,WeatherDisplay:10.37,2013-08-04 08:03:00,
2013-08-04 04:08:00,64.2,61.8,30.06,NNE,22,0.0,0.0,92,0.00,CLR,,0.00,WeatherDisplay:10.37,2013-08-04 08:08:00,
2013-08-04 04:13:00,64.2,61.8,30.06,NNE,22,0.0,0.0,92,0.00,CLR,,0.00,WeatherDisplay:10.37,2013-08-04 08:13:00,
2013-08-04 04:18:00,64.4,62.0,30.06,NNE,22,0.0,0.0,92,0.00,CLR,,0.00,WeatherDisplay:10.37,2013-08-04 08:18:00,
2013-08-04 04:23:00,64.2,61.8,30.06,NNE,22,0.0,0.0,92,0.00,CLR,,0.00,WeatherDisplay:10.37,2013-08-04 08:23:00,
2013-08-04 04:28:00,64.2,61.8,30.05,NNE,22,0.0,0.0,92,0.00,CLR,,0.00,WeatherDisplay:10.37,2013-08-04 08:28:00,
2013-08-04 04:33:00,64.2,61.8,30.06,NNE,22,0.0,0.0,92,0.00,CLR,,0.00,WeatherDisplay:10.37,2013-08-04 08:33:00,
2013-08-04 04:38:00,64.2,61.8,30.05,NNE,22,0.0,0.0,92,0.00,CLR,,0.00,WeatherDisplay:10.37,2013-08-04 08:38:00,
2013-08-04 04:43:00,64.0,61.7,30.05,NNE,22,0.0,0.0,92,0.00,CLR,,0.00,WeatherDisplay:10.37,2013-08-04 08:43:00,
2013-08-04 04:48:00,64.0,61.7,30.06,NNE,22,0.0,0.0,92,0.00,CLR,,0.00,WeatherDisplay:10.37,2013-08-04 08:48:00,
2013-08-04 04:53:00,63.9,61.2,30.05,NNE,22,0.0,0.0,91,0.00,CLR,,0.00,WeatherDisplay:10.37,2013-08-04 08:53:00,
2013-08-04 04:58:00,63.7,61.0,30.06,NNE,22,0.0,0.0,91,0.00,CLR,,0.00,WeatherDisplay:10.37,2013-08-04 08:58:00,
2013-08-04 05:03:00,63.5,60.8,30.05,NNE,22,0.0,0.0,91,0.00,CLR,,0.00,WeatherDisplay:10.37,2013-08-04 09:03:00,
2013-08-04 05:08:00,63.3,60.6,30.05,NNE,22,0.0,0.0,91,0.00,CLR,,0.00,WeatherDisplay:10.37,2013-08-04 09:08:00,
2013-08-04 05:13:00,63.3,61.0,30.05,NNE,22,0.0,0.0,92,0.00,CLR,,0.00,WeatherDisplay:10.37,2013-08-04 09:13:00,
2013-08-04 05:18:00,63.3,61.0,30.06,NNE,22,0.0,0.0,92,0.00,CLR,,0.00,WeatherDisplay:10.37,2013-08-04 09:18:00,
2013-08-04 05:23:00,63.1,60.8,30.06,NNE,22,0.0,0.0,92,0.00,CLR,,0.00,WeatherDisplay:10.37,2013-08-04 09:23:00,
2013-08-04 05:28:00,63.1,60.8,30.06,NNE,22,0.0,0.0,92,0.00,CLR,,0.00,WeatherDisplay:10.37,2013-08-04 09:28:00,
2013-08-04 05:33:00,63.1,60.8,30.06,NNE,22,0.0,0.0,92,0.00,CLR,,0.00,WeatherDisplay:10.37,2013-08-04 09:33:00,
2013-08-04 05:38:00,63.1,60.8,30.07,NNE,22,0.0,0.0,92,0.00,CLR,,0.00,WeatherDisplay:10.37,2013-08-04 09:38:00,
2013-08-04 05:43:00,63.1,60.8,30.07,NNE,22,0.0,0.0,92,0.00,CLR,,0.00,WeatherDisplay:10.37,2013-08-04 09:43:00,
2013-08-04 05:48:00,63.1,60.8,30.07,NNE,22,0.0,0.0,92,0.00,CLR,,0.00,WeatherDisplay:10.37,2013-08-04 09:48:00,
2013-08-04 05:53:00,63.1,60.8,30.07,NNE,22,0.0,0.0,92,0.00,CLR,,0.00,WeatherDisplay:10.37,2013-08-04 09:53:00,
2013-08-04 05:58:00,63.1,60.8,30.07,NNE,22,0.0,0.0,92,0.00,CLR,,0.00,WeatherDisplay:10.37,2013-08-04 09:58:00,
2013-08-04 06:03:00,63.1,60.8,30.07,NNE,22,0.0,0.0,92,0.00,CLR,,0.00,WeatherDisplay:10.37,2013-08-04 10:03:00,
2013-08-04 06:08:00,63.1,60.8,30.07,NNE,22,0.0,0.0,92,0.00,CLR,,0.00,WeatherDisplay:10.37,2013-08-04 10:08:00,
2013-08-04 06:13:00,63.0,60.6,30.08,NNE,22,0.0,0.0,92,0.00,CLR,,0.00,WeatherDisplay:10.37,2013-08-04 10:13:00,
2013-08-04 06:18:00,63.0,60.6,30.08,NNE,22,0.0,0.0,92,0.00,CLR,,0.00,WeatherDisplay:10.37,2013-08-04 10:18:00,
2013-08-04 06:23:00,62.8,60.4,30.08,NNE,22,0.0,0.0,92,0.00,CLR,,0.00,WeatherDisplay:10.37,2013-08-04 10:23:00,
2013-08-04 06:28:00,62.8,60.1,30.08,NNE,22,0.0,0.0,91,0.00,CLR,,0.00,WeatherDisplay:10.37,2013-08-04 10:28:00,
2013-08-04 06:33:00,62.8,60.1,30.08,NNE,22,0.0,0.0,91,0.00,CLR,,0.00,WeatherDisplay:10.37,2013-08-04 10:33:00,
2013-08-04 06:38:00,62.6,59.9,30.08,NNE,22,0.0,0.0,91,0.00,CLR,,0.00,WeatherDisplay:10.37,2013-08-04 10:38:00,
2013-08-04 06:43:00,62.4,59.8,30.08,NNE,22,0.0,0.0,91,0.00,CLR,,0.00,WeatherDisplay:10.37,2013-08-04 10:43:00,
2013-08-04 06:48:00,62.4,59.8,30.08,NNE,22,0.0,0.0,91,0.00,CLR,,0.00,WeatherDisplay:10.37,2013-08-04 10:48:00,
2013-08-04 06:53:00,62.4,59.8,30.08,NNE,22,0.0,0.0,91,0.00,CLR,,0.00,WeatherDisplay:10.37,2013-08-04 10:53:00,
2013-08-04 06:58:00,62.2,59.6,30.09,NNE,22,0.0,0.0,91,0.00,CLR,,0.00,WeatherDisplay:10.37,2013-08-04 10:58:00,
2013-08-04 07:03:00,62.2,59.6,30.08,NNE,22,0.0,0.0,91,0.00,CLR,,0.00,WeatherDisplay:10.37,2013-08-04 11:03:00,
2013-08-04 07:08:00,62.2,59.6,30.08,NNE,22,0.0,0.0,91,0.00,CLR,,0.00,WeatherDisplay:10.37,2013-08-04 11:08:00,
2013-08-04 07:13:00,62.2,59.6,30.09,NNE,22,0.0,0.0,91,0.00,CLR,,0.00,WeatherDisplay:10.37,2013-08-04 11:13:00,
2013-08-04 07:18:00,62.2,59.6,30.09,NNE,22,0.0,0.0,91,0.00,CLR,,0.00,WeatherDisplay:10.37,2013-08-04 11:18:00,
2013-08-04 07:23:00,62.2,59.6,30.08,NNE,22,0.0,0.0,91,0.00,CLR,,0.00,WeatherDisplay:10.37,2013-08-04 11:23:00,
2013-08-04 07:28:00,62.4,59.8,30.09,NNE,22,0.0,0.0,91,0.00,CLR,,0.00,WeatherDisplay:10.37,2013-08-04 11:28:00,
2013-08-04 07:33:00,62.4,59.8,30.09,NNE,22,0.0,0.0,91,0.00,CLR,,0.00,WeatherDisplay:10.37,2013-08-04 11:33:00,
2013-08-04 07:38:00,62.4,59.8,30.09,NNE,22,0.0,0.0,91,0.00,CLR,,0.00,WeatherDisplay:10.37,2013-08-04 11:38:00,
2013-08-04 07:43:00,62.8,60.1,30.09,NNE,22,0.0,0.0,91,0.00,CLR,,0.00,WeatherDisplay:10.37,2013-08-04 11:43:00,
2013-08-04 07:48:00,63.0,60.6,30.09,NNE,22,0.0,0.0,92,0.00,CLR,,0.00,WeatherDisplay:10.37,2013-08-04 11:48:00,
2013-08-04 07:53:00,63.1,60.8,30.09,NNE,22,0.0,0.0,92,0.00,CLR,,0.00,WeatherDisplay:10.37,2013-08-04 11:53:00,
2013-08-04 07:58:00,63.1,60.8,30.09,NNE,22,0.0,0.0,92,0.00,CLR,,0.00,WeatherDisplay:10.37,2013-08-04 11:58:00,
2013-08-04 08:03:00,63.1,60.8,30.09,NNE,22,0.0,0.0,92,0.00,CLR,,0.00,WeatherDisplay:10.37,2013-08-04 12:03:00,
2013-08-04 08:08:00,63.3,61.0,30.09,NNE,22,0.0,0.0,92,0.00,CLR,,0.00,WeatherDisplay:10.37,2013-08-04 12:08:00,
2013-08-04 08:13:00,63.3,61.0,30.10,NNE,22,0.0,0.0,92,0.00,CLR,,0.00,WeatherDisplay:10.37,2013-08-04 12:13:00,
2013-08-04 08:18:00,63.5,61.1,30.09,NNE,22,0.0,0.0,92,0.00,CLR,,0.00,WeatherDisplay:10.37,2013-08-04 12:18:00,
2013-08-04 08:23:00,64.0,61.7,30.09,NNE,22,0.0,0.0,92,0.00,CLR,,0.00,WeatherDisplay:10.37,2013-08-04 12:23:00,
2013-08-04 08:28:00,64.2,61.8,30.10,NNE,22,0.0,0.0,92,0.00,CLR,,0.00,WeatherDisplay:10.37,2013-08-04 12:28:00,
2013-08-04 08:33:00,64.6,61.9,30.10,NNE,22,0.0,0.0,91,0.00,CLR,,0.00,WeatherDisplay:10.37,2013-08-04 12:33:00,
2013-08-04 08:38:00,64.6,61.9,30.10,NNE,22,0.0,0.0,91,0.00,CLR,,0.00,WeatherDisplay:10.37,2013-08-04 12:38:00,
2013-08-04 08:43:00,64.6,61.9,30.11,NNE,22,0.0,0.0,91,0.00,CLR,,0.00,WeatherDisplay:10.37,2013-08-04 12:43:00,
2013-08-04 08:48:00,64.8,62.1,30.11,NNE,22,0.0,0.0,91,0.00,CLR,,0.00,WeatherDisplay:10.37,2013-08-04 12:48:00,
2013-08-04 08:53:00,64.9,61.9,30.11,NNE,22,0.0,0.0,90,0.00,CLR,,0.00,WeatherDisplay:10.37,2013-08-04 12:53:00,
2013-08-04 08:58:00,65.1,62.1,30.11,NNE,22,0.0,0.0,90,0.00,CLR,,0.00,WeatherDisplay:10.37,2013-08-04 12:58:00,
2013-08-04 09:03:00,65.5,62.5,30.11,NNE,22,0.0,0.0,90,0.00,CLR,,0.00,WeatherDisplay:10.37,2013-08-04 13:03:00,
2013-08-04 09:08:00,65.7,62.3,30.11,NNE,22,0.0,0.0,89,0.00,CLR,,0.00,WeatherDisplay:10.37,2013-08-04 13:08:00,
2013-08-04 09:13:00,66.0,62.7,30.11,NNE,22,0.0,0.0,89,0.00,CLR,,0.00,WeatherDisplay:10.37,2013-08-04 13:13:00,
2013-08-04 09:18:00,66.2,62.5,30.11,NNE,22,0.0,0.0,88,0.00,CLR,,0.00,WeatherDisplay:10.37,2013-08-04 13:18:00,
2013-08-04 09:23:00,66.7,63.1,30.11,NNE,22,0.0,0.0,88,0.00,CLR,,0.00,WeatherDisplay:10.37,2013-08-04 13:23:00,
2013-08-04 09:28:00,67.3,63.6,30.10,NNE,22,0.0,0.0,88,0.00,CLR,,0.00,WeatherDisplay:10.37,2013-08-04 13:28:00,
2013-08-04 09:33:00,67.6,63.0,30.11,NNE,22,0.0,0.0,85,0.00,CLR,,0.00,WeatherDisplay:10.37,2013-08-04 13:33:00,
2013-08-04 09:38:00,67.5,62.8,30.11,NNE,22,0.0,0.0,85,0.00,CLR,,0.00,WeatherDisplay:10.37,2013-08-04 13:38:00,
2013-08-04 09:43:00,67.6,62.6,30.11,NNE,22,0.0,0.0,84,0.00,CLR,,0.00,WeatherDisplay:10.37,2013-08-04 13:43:00,
2013-08-04 09:48:00,67.8,62.8,30.11,NNE,22,0.0,0.0,84,0.00,CLR,,0.00,WeatherDisplay:10.37,2013-08-04 13:48:00,
2013-08-04 09:53:00,67.8,62.8,30.11,NNE,22,0.0,0.0,84,0.00,CLR,,0.00,WeatherDisplay:10.37,2013-08-04 13:53:00,
2013-08-04 09:58:00,68.5,63.5,30.11,NNE,22,0.0,0.0,84,0.00,CLR,,0.00,WeatherDisplay:10.37,2013-08-04 13:58:00,
2013-08-04 10:03:00,68.9,62.8,30.11,NNE,22,0.0,0.0,81,0.00,CLR,,0.00,WeatherDisplay:10.37,2013-08-04 14:03:00,
2013-08-04 10:08:00,68.5,62.1,30.11,NNE,22,0.0,0.0,80,0.00,CLR,,0.00,WeatherDisplay:10.37,2013-08-04 14:08:00,
2013-08-04 10:13:00,68.2,62.1,30.11,NNE,22,0.0,0.0,81,0.00,CLR,,0.00,WeatherDisplay:10.37,2013-08-04 14:13:00,
2013-08-04 10:18:00,68.2,62.1,30.11,NNE,22,0.0,0.0,81,0.00,CLR,,0.00,WeatherDisplay:10.37,2013-08-04 14:18:00,
2013-08-04 10:23:00,68.7,62.7,30.11,NNE,22,0.0,0.0,81,0.00,CLR,,0.00,WeatherDisplay:10.37,2013-08-04 14:23:00,
2013-08-04 10:28:00,69.4,63.0,30.11,NNE,22,0.0,0.0,80,0.00,CLR,,0.00,WeatherDisplay:10.37,2013-08-04 14:28:00,
2013-08-04 10:33:00,69.1,61.9,30.11,NNE,22,0.0,0.0,78,0.00,CLR,,0.00,WeatherDisplay:10.37,2013-08-04 14:33:00,
2013-08-04 10:38:00,68.7,61.6,30.11,NNE,22,0.0,0.0,78,0.00,CLR,,0.00,WeatherDisplay:10.37,2013-08-04 14:38:00,
2013-08-04 10:43:00,68.7,61.9,30.11,NNE,22,0.0,0.0,79,0.00,CLR,,0.00,WeatherDisplay:10.37,2013-08-04 14:43:00,
2013-08-04 10:48:00,69.4,62.6,30.11,NNE,22,0.0,0.0,79,0.00,CLR,,0.00,WeatherDisplay:10.37,2013-08-04 14:48:00,
2013-08-04 10:53:00,70.3,63.2,30.11,NNE,22,0.0,0.0,78,0.00,CLR,,0.00,WeatherDisplay:10.37,2013-08-04 14:53:00,
2013-08-04 10:58:00,70.7,61.6,30.11,NNE,22,0.0,0.0,73,0.00,CLR,,0.00,WeatherDisplay:10.37,2013-08-04 14:58:00,
2013-08-04 11:03:00,70.9,61.8,30.11,NNE,22,0.0,0.0,73,0.00,CLR,,0.00,WeatherDisplay:10.37,2013-08-04 15:03:00,
2013-08-04 11:08:00,71.2,62.1,30.11,NNE,22,0.0,0.0,73,0.00,CLR,,0.00,WeatherDisplay:10.37,2013-08-04 15:08:00,
2013-08-04 11:14:00,70.9,62.2,30.11,NNE,22,0.0,0.0,74,0.00,CLR,,0.00,WeatherDisplay:10.37,2013-08-04 15:14:00,
2013-08-04 11:19:00,70.5,61.8,30.11,NNE,22,0.0,0.0,74,0.00,CLR,,0.00,WeatherDisplay:10.37,2013-08-04 15:19:00,
2013-08-04 11:23:00,70.2,61.5,30.10,NNE,22,0.0,0.0,74,0.00,CLR,,0.00,WeatherDisplay:10.37,2013-08-04 15:23:00,
2013-08-04 11:29:00,69.6,61.3,30.11,NNE,22,0.0,0.0,75,0.00,CLR,,0.00,WeatherDisplay:10.37,2013-08-04 15:29:00,
2013-08-04 11:34:00,69.4,61.5,30.11,NNE,22,0.0,0.0,76,0.00,CLR,,0.00,WeatherDisplay:10.37,2013-08-04 15:34:00,
2013-08-04 11:39:00,69.3,61.4,30.11,NNE,22,0.0,0.0,76,0.00,CLR,,0.00,WeatherDisplay:10.37,2013-08-04 15:39:00,
2013-08-04 11:43:00,69.4,61.5,30.11,NNE,22,0.0,0.0,76,0.00,CLR,,0.00,WeatherDisplay:10.37,2013-08-04 15:43:00,
2013-08-04 11:49:00,69.6,61.3,30.11,NNE,22,0.0,0.0,75,0.00,CLR,,0.00,WeatherDisplay:10.37,2013-08-04 15:49:00,
2013-08-04 11:53:00,69.6,61.3,30.11,NNE,22,0.0,0.0,75,0.00,CLR,,0.00,WeatherDisplay:10.37,2013-08-04 15:53:00,
2013-08-04 11:59:00,69.8,61.9,30.11,NNE,22,0.0,0.0,76,0.00,CLR,,0.00,WeatherDisplay:10.37,2013-08-04 15:59:00,
2013-08-04 12:03:00,70.2,62.2,30.11,NNE,22,0.0,0.0,76,0.00,CLR,,0.00,WeatherDisplay:10.37,2013-08-04 16:03:00,
2013-08-04 12:09:00,70.9,62.6,30.11,NNE,22,0.0,0.0,75,0.00,CLR,,0.00,WeatherDisplay:10.37,2013-08-04 16:09:00,
2013-08-04 12:14:00,71.2,62.1,30.11,NNE,22,0.0,0.0,73,0.00,CLR,,0.00,WeatherDisplay:10.37,2013-08-04 16:14:00,
2013-08-04 12:19:00,71.8,62.3,30.11,NNE,22,0.0,0.0,72,0.00,CLR,,0.00,WeatherDisplay:10.37,2013-08-04 16:19:00,
2013-08-04 12:24:00,71.8,62.3,30.11,NNE,22,0.0,0.0,72,0.00,CLR,,0.00,WeatherDisplay:10.37,2013-08-04 16:24:00,
2013-08-04 12:29:00,71.8,61.9,30.11,NNE,22,0.0,0.0,71,0.00,CLR,,0.00,WeatherDisplay:10.37,2013-08-04 16:29:00,
2013-08-04 12:34:00,71.4,61.5,30.11,NNE,22,0.0,0.0,71,0.00,CLR,,0.00,WeatherDisplay:10.37,2013-08-04 16:34:00,
2013-08-04 12:39:00,71.4,61.9,30.11,NNE,22,0.0,0.0,72,0.00,CLR,,0.00,WeatherDisplay:10.37,2013-08-04 16:39:00,
2013-08-04 12:44:00,72.0,62.0,30.11,NNE,22,0.0,0.0,71,0.00,CLR,,0.00,WeatherDisplay:10.37,2013-08-04 16:44:00,
2013-08-04 12:49:00,72.1,61.8,30.11,NNE,22,0.0,0.0,70,0.00,CLR,,0.00,WeatherDisplay:10.37,2013-08-04 16:49:00,
2013-08-04 12:54:00,72.3,61.6,30.11,NNE,22,0.0,0.0,69,0.00,CLR,,0.00,WeatherDisplay:10.37,2013-08-04 16:54:00,
2013-08-04 12:59:00,72.3,61.6,30.10,NNE,22,0.0,0.0,69,0.00,CLR,,0.00,WeatherDisplay:10.37,2013-08-04 16:59:00,
2013-08-04 13:04:00,72.5,61.3,30.10,NNE,22,0.0,0.0,68,0.00,CLR,,0.00,WeatherDisplay:10.37,2013-08-04 17:04:00,
2013-08-04 13:09:00,73.2,62.0,30.10,NNE,22,0.0,0.0,68,0.00,CLR,,0.00,WeatherDisplay:10.37,2013-08-04 17:09:00,
2013-08-04 13:14:00,73.8,62.5,30.10,NNE,22,0.0,0.0,68,0.00,CLR,,0.00,WeatherDisplay:10.37,2013-08-04 17:14:00,
2013-08-04 13:19:00,73.4,61.8,30.10,NNE,22,0.0,0.0,67,0.00,CLR,,0.00,WeatherDisplay:10.37,2013-08-04 17:19:00,
2013-08-04 13:24:00,72.5,60.9,30.10,NNE,22,0.0,0.0,67,0.00,CLR,,0.00,WeatherDisplay:10.37,2013-08-04 17:24:00,
2013-08-04 13:29:00,71.8,60.2,30.10,NNE,22,0.0,0.0,67,0.00,CLR,,0.00,WeatherDisplay:10.37,2013-08-04 17:29:00,
2013-08-04 13:34:00,71.4,60.3,30.10,NNE,22,0.0,0.0,68,0.00,CLR,,0.00,WeatherDisplay:10.37,2013-08-04 17:34:00,
2013-08-04 13:39:00,71.2,60.1,30.10,NNE,22,0.0,0.0,68,0.00,CLR,,0.00,WeatherDisplay:10.37,2013-08-04 17:39:00,
2013-08-04 13:44:00,71.1,60.4,30.10,NNE,22,0.0,0.0,69,0.00,CLR,,0.00,WeatherDisplay:10.37,2013-08-04 17:44:00,
2013-08-04 13:49:00,71.1,60.4,30.10,NNE,22,0.0,0.0,69,0.00,CLR,,0.00,WeatherDisplay:10.37,2013-08-04 17:49:00,
2013-08-04 13:54:00,71.2,60.5,30.10,NNE,22,0.0,0.0,69,0.00,CLR,,0.00,WeatherDisplay:10.37,2013-08-04 17:54:00,
2013-08-04 13:59:00,71.2,60.5,30.10,NNE,22,0.0,0.0,69,0.00,CLR,,0.00,WeatherDisplay:10.37,2013-08-04 17:59:00,
2013-08-04 14:04:00,71.2,60.5,30.10,NNE,22,0.0,0.0,69,0.00,CLR,,0.00,WeatherDisplay:10.37,2013-08-04 18:04:00,
2013-08-04 14:09:00,71.2,60.5,30.10,NNE,22,0.0,0.0,69,0.00,CLR,,0.00,WeatherDisplay:10.37,2013-08-04 18:09:00,
2013-08-04 14:14:00,70.9,60.2,30.10,NNE,22,0.0,0.0,69,0.00,CLR,,0.00,WeatherDisplay:10.37,2013-08-04 18:14:00,
2013-08-04 14:19:00,70.5,59.9,30.10,NNE,22,0.0,0.0,69,0.00,CLR,,0.00,WeatherDisplay:10.37,2013-08-04 18:19:00,
2013-08-04 14:24:00,70.2,59.9,30.10,NNE,22,0.0,0.0,70,0.00,CLR,,0.00,WeatherDisplay:10.37,2013-08-04 18:24:00,
2013-08-04 14:29:00,69.6,59.4,30.10,NNE,22,0.0,0.0,70,0.00,CLR,,0.00,WeatherDisplay:10.37,2013-08-04 18:29:00,
2013-08-04 14:34:00,69.6,59.8,30.10,NNE,22,0.0,0.0,71,0.00,CLR,,0.00,WeatherDisplay:10.37,2013-08-04 18:34:00,
2013-08-04 14:39:00,69.4,59.6,30.11,NNE,22,0.0,0.0,71,0.00,CLR,,0.00,WeatherDisplay:10.37,2013-08-04 18:39:00,
2013-08-04 14:44:00,69.3,59.5,30.11,NNE,22,0.0,0.0,71,0.00,CLR,,0.00,WeatherDisplay:10.37,2013-08-04 18:44:00,
2013-08-04 14:49:00,68.9,59.1,30.11,NNE,22,0.0,0.0,71,0.00,CLR,,0.00,WeatherDisplay:10.37,2013-08-04 18:49:00,
2013-08-04 14:54:00,68.7,59.3,30.11,NNE,22,0.0,0.0,72,0.00,CLR,,0.00,WeatherDisplay:10.37,2013-08-04 18:54:00,
2013-08-04 14:59:00,68.5,59.2,30.11,NNE,22,0.0,0.0,72,0.00,CLR,,0.00,WeatherDisplay:10.37,2013-08-04 18:59:00,
2013-08-04 15:04:00,68.4,59.4,30.11,NNE,22,0.0,0.0,73,0.00,CLR,,0.00,WeatherDisplay:10.37,2013-08-04 19:04:00,
2013-08-04 15:09:00,68.5,59.5,30.11,NNE,22,0.0,0.0,73,0.00,CLR,,0.00,WeatherDisplay:10.37,2013-08-04 19:09:00,
2013-08-04 15:14:00,69.1,60.1,30.11,NNE,22,0.0,0.0,73,0.00,CLR,,0.00,WeatherDisplay:10.37,2013-08-04 19:14:00,
2013-08-04 15:19:00,69.4,60.0,30.11,NNE,22,0.0,0.0,72,0.00,CLR,,0.00,WeatherDisplay:10.37,2013-08-04 19:19:00,
2013-08-04 15:24:00,69.4,60.0,30.10,NNE,22,0.0,0.0,72,0.00,CLR,,0.00,WeatherDisplay:10.37,2013-08-04 19:24:00,
2013-08-04 15:29:00,69.4,60.0,30.10,NNE,22,0.0,0.0,72,0.00,CLR,,0.00,WeatherDisplay:10.37,2013-08-04 19:29:00,
2013-08-04 15:34:00,69.4,60.0,30.10,NNE,22,0.0,0.0,72,0.00,CLR,,0.00,WeatherDisplay:10.37,2013-08-04 19:34:00,
2013-08-04 15:39:00,69.6,60.2,30.10,NNE,22,0.0,0.0,72,0.00,CLR,,0.00,WeatherDisplay:10.37,2013-08-04 19:39:00,
2013-08-04 15:44:00,69.6,60.2,30.10,NNE,22,0.0,0.0,72,0.00,CLR,,0.00,WeatherDisplay:10.37,2013-08-04 19:44:00,
2013-08-04 15:49:00,69.6,60.2,30.10,NNE,22,0.0,0.0,72,0.00,CLR,,0.00,WeatherDisplay:10.37,2013-08-04 19:49:00,
2013-08-04 15:54:00,70.2,61.1,30.10,NNE,22,0.0,0.0,73,0.00,CLR,,0.00,WeatherDisplay:10.37,2013-08-04 19:54:00,
2013-08-04 15:59:00,71.2,61.7,30.10,NNE,22,0.0,0.0,72,0.00,CLR,,0.00,WeatherDisplay:10.37,2013-08-04 19:59:00,
2013-08-04 16:04:00,72.1,61.8,30.10,NNE,22,0.0,0.0,70,0.00,CLR,,0.00,WeatherDisplay:10.37,2013-08-04 20:04:00,
2013-08-04 16:09:00,72.5,61.7,30.10,NNE,22,0.0,0.0,69,0.00,CLR,,0.00,WeatherDisplay:10.37,2013-08-04 20:09:00,
2013-08-04 16:14:00,72.5,61.3,30.10,NNE,22,0.0,0.0,68,0.00,CLR,,0.00,WeatherDisplay:10.37,2013-08-04 20:14:00,
2013-08-04 16:19:00,72.3,61.2,30.10,NNE,22,0.0,0.0,68,0.00,CLR,,0.00,WeatherDisplay:10.37,2013-08-04 20:19:00,
2013-08-04 16:24:00,72.1,61.0,30.10,NNE,22,0.0,0.0,68,0.00,CLR,,0.00,WeatherDisplay:10.37,2013-08-04 20:24:00,
2013-08-04 16:29:00,72.1,61.0,30.10,NNE,22,0.0,0.0,68,0.00,CLR,,0.00,WeatherDisplay:10.37,2013-08-04 20:29:00,
2013-08-04 16:34:00,72.1,61.0,30.10,NNE,22,0.0,0.0,68,0.00,CLR,,0.00,WeatherDisplay:10.37,2013-08-04 20:34:00,
2013-08-04 16:39:00,72.1,60.2,30.10,NNE,22,0.0,0.0,66,0.00,CLR,,0.00,WeatherDisplay:10.37,2013-08-04 20:39:00,
2013-08-04 16:44:00,72.7,61.1,30.10,NNE,22,0.0,0.0,67,0.00,CLR,,0.00,WeatherDisplay:10.37,2013-08-04 20:44:00,
2013-08-04 16:49:00,74.3,62.2,30.10,NNE,22,0.0,0.0,66,0.00,CLR,,0.00,WeatherDisplay:10.37,2013-08-04 20:49:00,
2013-08-04 16:54:00,75.0,62.5,30.10,NNE,22,0.0,0.0,65,0.00,CLR,,0.00,WeatherDisplay:10.37,2013-08-04 20:54:00,
2013-08-04 16:59:00,75.4,61.9,30.10,NNE,22,0.0,0.0,63,0.00,CLR,,0.00,WeatherDisplay:10.37,2013-08-04 20:59:00,
2013-08-04 17:04:00,75.0,61.6,30.10,NNE,22,0.0,0.0,63,0.00,CLR,,0.00,WeatherDisplay:10.37,2013-08-04 21:04:00,
2013-08-04 17:09:00,74.8,61.4,30.10,NNE,22,0.0,0.0,63,0.00,CLR,,0.00,WeatherDisplay:10.37,2013-08-04 21:09:00,
2013-08-04 17:14:00,74.5,61.1,30.10,NNE,22,0.0,0.0,63,0.00,CLR,,0.00,WeatherDisplay:10.37,2013-08-04 21:14:00,
2013-08-04 17:19:00,74.3,61.3,30.10,NNE,22,0.0,0.0,64,0.00,CLR,,0.00,WeatherDisplay:10.37,2013-08-04 21:19:00,
2013-08-04 17:24:00,73.9,61.4,30.10,NNE,22,0.0,0.0,65,0.00,CLR,,0.00,WeatherDisplay:10.37,2013-08-04 21:24:00,
2013-08-04 17:29:00,73.6,61.1,30.10,NNE,22,0.0,0.0,65,0.00,CLR,,0.00,WeatherDisplay:10.37,2013-08-04 21:29:00,
2013-08-04 17:34:00,73.0,60.1,30.10,NNE,22,0.0,0.0,64,0.00,CLR,,0.00,WeatherDisplay:10.37,2013-08-04 21:34:00,
2013-08-04 17:39:00,72.5,60.5,30.10,NNE,22,0.0,0.0,66,0.00,CLR,,0.00,WeatherDisplay:10.37,2013-08-04 21:39:00,
2013-08-04 17:44:00,72.3,60.7,30.10,NNE,22,0.0,0.0,67,0.00,CLR,,0.00,WeatherDisplay:10.37,2013-08-04 21:44:00,
2013-08-04 17:49:00,71.6,60.1,30.10,NNE,22,0.0,0.0,67,0.00,CLR,,0.00,WeatherDisplay:10.37,2013-08-04 21:49:00,
2013-08-04 17:54:00,71.4,60.3,30.10,NNE,22,0.0,0.0,68,0.00,CLR,,0.00,WeatherDisplay:10.37,2013-08-04 21:54:00,
2013-08-04 17:59:00,71.2,60.1,30.10,NNE,22,0.0,0.0,68,0.00,CLR,,0.00,WeatherDisplay:10.37,2013-08-04 21:59:00,
2013-08-04 18:04:00,70.9,60.2,30.10,NNE,22,0.0,0.0,69,0.00,CLR,,0.00,WeatherDisplay:10.37,2013-08-04 22:04:00,
2013-08-04 18:09:00,70.9,60.2,30.10,NNE,22,0.0,0.0,69,0.00,CLR,,0.00,WeatherDisplay:10.37,2013-08-04 22:09:00,
2013-08-04 18:14:00,70.5,60.3,30.10,NNE,22,0.0,0.0,70,0.00,CLR,,0.00,WeatherDisplay:10.37,2013-08-04 22:14:00,
2013-08-04 18:19:00,70.3,60.1,30.10,NNE,22,0.0,0.0,70,0.00,CLR,,0.00,WeatherDisplay:10.37,2013-08-04 22:19:00,
2013-08-04 18:24:00,70.2,60.3,30.09,NNE,22,0.0,0.0,71,0.00,CLR,,0.00,WeatherDisplay:10.37,2013-08-04 22:24:00,
2013-08-04 18:29:00,70.0,60.1,30.10,NNE,22,0.0,0.0,71,0.00,CLR,,0.00,WeatherDisplay:10.37,2013-08-04 22:29:00,
2013-08-04 18:34:00,70.0,60.1,30.10,NNE,22,0.0,0.0,71,0.00,CLR,,0.00,WeatherDisplay:10.37,2013-08-04 22:34:00,
2013-08-04 18:39:00,70.2,60.3,30.09,NNE,22,0.0,0.0,71,0.00,CLR,,0.00,WeatherDisplay:10.37,2013-08-04 22:39:00,
2013-08-04 18:44:00,70.7,60.8,30.09,NNE,22,0.0,0.0,71,0.00,CLR,,0.00,WeatherDisplay:10.37,2013-08-04 22:44:00,
2013-08-04 18:49:00,70.9,61.0,30.10,NNE,22,0.0,0.0,71,0.00,CLR,,0.00,WeatherDisplay:10.37,2013-08-04 22:49:00,
2013-08-04 18:54:00,70.7,60.4,30.10,NNE,22,0.0,0.0,70,0.00,CLR,,0.00,WeatherDisplay:10.37,2013-08-04 22:54:00,
2013-08-04 18:59:00,70.9,60.6,30.10,NNE,22,0.0,0.0,70,0.00,CLR,,0.00,WeatherDisplay:10.37,2013-08-04 22:59:00,
2013-08-04 19:04:00,70.9,60.6,30.10,NNE,22,0.0,0.0,70,0.00,CLR,,0.00,WeatherDisplay:10.37,2013-08-04 23:04:00,
2013-08-04 19:09:00,71.2,60.5,30.10,NNE,22,0.0,0.0,69,0.00,CLR,,0.00,WeatherDisplay:10.37,2013-08-04 23:09:00,
2013-08-04 19:14:00,71.2,60.5,30.10,NNE,22,0.0,0.0,69,0.00,CLR,,0.00,WeatherDisplay:10.37,2013-08-04 23:14:00,
2013-08-04 19:19:00,70.9,60.2,30.10,NNE,22,0.0,0.0,69,0.00,CLR,,0.00,WeatherDisplay:10.37,2013-08-04 23:19:00,
2013-08-04 19:24:00,70.3,60.1,30.10,NNE,22,0.0,0.0,70,0.00,CLR,,0.00,WeatherDisplay:10.37,2013-08-04 23:24:00,
2013-08-04 19:29:00,69.8,59.6,30.10,NNE,22,0.0,0.0,70,0.00,CLR,,0.00,WeatherDisplay:10.37,2013-08-04 23:29:00,
2013-08-04 19:34:00,69.4,59.2,30.10,NNE,22,0.0,0.0,70,0.00,CLR,,0.00,WeatherDisplay:10.37,2013-08-04 23:34:00,
2013-08-04 19:39:00,69.3,59.1,30.10,NNE,22,0.0,0.0,70,0.00,CLR,,0.00,WeatherDisplay:10.37,2013-08-04 23:39:00,
2013-08-04 19:44:00,68.7,58.9,30.10,NNE,22,0.0,0.0,71,0.00,CLR,,0.00,WeatherDisplay:10.37,2013-08-04 23:44:00,
2013-08-04 19:49:00,68.5,59.2,30.11,NNE,22,0.0,0.0,72,0.00,CLR,,0.00,WeatherDisplay:10.37,2013-08-04 23:49:00,
2013-08-04 19:54:00,68.5,59.2,30.11,NNE,22,0.0,0.0,72,0.00,CLR,,0.00,WeatherDisplay:10.37,2013-08-04 23:54:00,
2013-08-04 19:59:00,68.2,59.2,30.11,NNE,22,0.0,0.0,73,0.00,CLR,,0.00,WeatherDisplay:10.37,2013-08-04 23:59:00,
2013-08-04 20:04:00,67.8,58.8,30.11,NNE,22,0.0,0.0,73,0.00,CLR,,0.00,WeatherDisplay:10.37,2013-08-05 00:04:00,
2013-08-04 20:09:00,67.8,59.2,30.11,NNE,22,0.0,0.0,74,0.00,CLR,,0.00,WeatherDisplay:10.37,2013-08-05 00:09:00,
2013-08-04 20:14:00,67.3,58.7,30.11,NNE,22,0.0,0.0,74,0.00,CLR,,0.00,WeatherDisplay:10.37,2013-08-05 00:14:00,
2013-08-04 20:19:00,67.1,58.9,30.11,NNE,22,0.0,0.0,75,0.00,CLR,,0.00,WeatherDisplay:10.37,2013-08-05 00:19:00,
2013-08-04 20:24:00,66.7,58.6,30.11,NNE,22,0.0,0.0,75,0.00,CLR,,0.00,WeatherDisplay:10.37,2013-08-05 00:24:00,
2013-08-04 20:29:00,66.4,58.2,30.11,NNE,22,0.0,0.0,75,0.00,CLR,,0.00,WeatherDisplay:10.37,2013-08-05 00:29:00,
2013-08-04 20:34:00,66.0,58.2,30.11,NNE,22,0.0,0.0,76,0.00,CLR,,0.00,WeatherDisplay:10.37,2013-08-05 00:34:00,
2013-08-04 20:39:00,65.8,58.1,30.11,NNE,22,0.0,0.0,76,0.00,CLR,,0.00,WeatherDisplay:10.37,2013-08-05 00:39:00,
2013-08-04 20:44:00,65.5,58.1,30.11,NNE,22,0.0,0.0,77,0.00,CLR,,0.00,WeatherDisplay:10.37,2013-08-05 00:44:00,
2013-08-04 20:49:00,65.1,57.7,30.11,NNE,22,0.0,0.0,77,0.00,CLR,,0.00,WeatherDisplay:10.37,2013-08-05 00:49:00,
2013-08-04 20:54:00,64.8,57.7,30.11,NNE,22,0.0,0.0,78,0.00,CLR,,0.00,WeatherDisplay:10.37,2013-08-05 00:54:00,
2013-08-04 20:59:00,64.6,57.6,30.12,NNE,22,0.0,0.0,78,0.00,CLR,,0.00,WeatherDisplay:10.37,2013-08-05 00:59:00,
2013-08-04 21:04:00,64.2,57.6,30.11,NNE,22,0.0,0.0,79,0.00,CLR,,0.00,WeatherDisplay:10.37,2013-08-05 01:04:00,
2013-08-04 21:09:00,64.0,57.0,30.11,NNE,22,0.0,0.0,78,0.00,CLR,,0.00,WeatherDisplay:10.37,2013-08-05 01:09:00,
2013-08-04 21:14:00,64.0,57.4,30.11,NNE,22,0.0,0.0,79,0.00,CLR,,0.00,WeatherDisplay:10.37,2013-08-05 01:14:00,
2013-08-04 21:20:00,63.7,57.0,30.11,NNE,22,0.0,0.0,79,0.00,CLR,,0.00,WeatherDisplay:10.37,2013-08-05 01:20:00,
2013-08-04 21:24:00,63.5,56.9,30.11,NNE,22,0.0,0.0,79,0.00,CLR,,0.00,WeatherDisplay:10.37,2013-08-05 01:24:00,
2013-08-04 21:29:00,63.1,56.9,30.12,NNE,22,0.0,0.0,80,0.00,CLR,,0.00,WeatherDisplay:10.37,2013-08-05 01:29:00,
2013-08-04 21:35:00,63.1,56.9,30.12,NNE,22,0.0,0.0,80,0.00,CLR,,0.00,WeatherDisplay:10.37,2013-08-05 01:35:00,
2013-08-04 21:40:00,62.8,56.5,30.12,NNE,22,0.0,0.0,80,0.00,CLR,,0.00,WeatherDisplay:10.37,2013-08-05 01:40:00,
2013-08-04 21:45:00,62.6,56.7,30.12,NNE,22,0.0,0.0,81,0.00,CLR,,0.00,WeatherDisplay:10.37,2013-08-05 01:45:00,
2013-08-04 21:49:00,62.4,56.5,30.12,NNE,22,0.0,0.0,81,0.00,CLR,,0.00,WeatherDisplay:10.37,2013-08-05 01:49:00,
2013-08-04 21:55:00,62.2,56.7,30.13,NNE,22,0.0,0.0,82,0.00,CLR,,0.00,WeatherDisplay:10.37,2013-08-05 01:55:00,
2013-08-04 21:59:00,61.9,56.3,30.12,NNE,22,0.0,0.0,82,0.00,CLR,,0.00,WeatherDisplay:10.37,2013-08-05 01:59:00,
2013-08-04 22:05:00,61.7,56.1,30.13,NNE,22,0.0,0.0,82,0.00,CLR,,0.00,WeatherDisplay:10.37,2013-08-05 02:05:00,
2013-08-04 22:10:00,61.7,56.1,30.13,NNE,22,0.0,0.0,82,0.00,CLR,,0.00,WeatherDisplay:10.37,2013-08-05 02:10:00,
2013-08-04 22:15:00,61.5,56.0,30.13,NNE,22,0.0,0.0,82,0.00,CLR,,0.00,WeatherDisplay:10.37,2013-08-05 02:15:00,
2013-08-04 22:20:00,61.3,55.8,30.13,NNE,22,0.0,0.0,82,0.00,CLR,,0.00,WeatherDisplay:10.37,2013-08-05 02:20:00,
2013-08-04 22:24:00,61.3,55.8,30.13,NNE,22,0.0,0.0,82,0.00,CLR,,0.00,WeatherDisplay:10.37,2013-08-05 02:24:00,
2013-08-04 22:29:00,61.2,55.6,30.14,NNE,22,0.0,0.0,82,0.00,CLR,,0.00,WeatherDisplay:10.37,2013-08-05 02:29:00,
2013-08-04 22:30:00,61.2,55.6,30.14,NNE,22,0.0,0.0,82,0.00,CLR,,0.00,WeatherDisplay:10.37,2013-08-05 02:30:00,
2013-08-04 22:35:00,61.0,55.4,30.13,NNE,22,0.0,0.0,82,0.00,CLR,,0.00,WeatherDisplay:10.37,2013-08-05 02:35:00,
2013-08-04 22:40:00,60.6,55.4,30.14,NNE,22,0.0,0.0,83,0.00,CLR,,0.00,WeatherDisplay:10.37,2013-08-05 02:40:00,
2013-08-04 22:45:00,60.6,55.4,30.14,NNE,22,0.0,0.0,83,0.00,CLR,,0.00,WeatherDisplay:10.37,2013-08-05 02:45:00,
2013-08-04 22:50:00,60.6,55.4,30.14,NNE,22,0.0,0.0,83,0.00,CLR,,0.00,WeatherDisplay:10.37,2013-08-05 02:50:00,
2013-08-04 22:55:00,60.4,55.3,30.13,NNE,22,0.0,0.0,83,0.00,CLR,,0.00,WeatherDisplay:10.37,2013-08-05 02:55:00,
2013-08-04 23:00:00,60.1,55.2,30.14,NNE,22,0.0,0.0,84,0.00,CLR,,0.00,WeatherDisplay:10.37,2013-08-05 03:00:00,
2013-08-04 23:04:00,60.0,55.1,30.14,NNE,22,0.0,0.0,84,0.00,CLR,,0.00,WeatherDisplay:10.37,2013-08-05 03:04:00,
2013-08-04 23:10:00,59.5,54.7,30.14,NNE,22,0.0,0.0,84,0.00,CLR,,0.00,WeatherDisplay:10.37,2013-08-05 03:10:00,
2013-08-04 23:15:00,59.5,55.0,30.14,NNE,22,0.0,0.0,85,0.00,CLR,,0.00,WeatherDisplay:10.37,2013-08-05 03:15:00,
2013-08-04 23:19:00,59.4,54.8,30.15,NNE,22,0.0,0.0,85,0.00,CLR,,0.00,WeatherDisplay:10.37,2013-08-05 03:19:00,
2013-08-04 23:25:00,59.4,54.8,30.15,NNE,22,0.0,0.0,85,0.00,CLR,,0.00,WeatherDisplay:10.37,2013-08-05 03:25:00,
2013-08-04 23:29:00,58.9,54.7,30.15,NNE,22,0.0,0.0,86,0.00,CLR,,0.00,WeatherDisplay:10.37,2013-08-05 03:29:00,
2013-08-04 23:35:00,58.8,54.6,30.15,NNE,22,0.0,0.0,86,0.00,CLR,,0.00,WeatherDisplay:10.37,2013-08-05 03:35:00,
2013-08-04 23:40:00,58.8,55.0,30.14,NNE,22,0.0,0.0,87,0.00,CLR,,0.00,WeatherDisplay:10.37,2013-08-05 03:40:00,
2013-08-04 23:45:00,58.8,55.0,30.15,NNE,22,0.0,0.0,87,0.00,CLR,,0.00,WeatherDisplay:10.37,2013-08-05 03:45:00,
2013-08-04 23:49:00,58.8,55.0,30.15,NNE,22,0.0,0.0,87,0.00,CLR,,0.00,WeatherDisplay:10.37,2013-08-05 03:49:00,
2013-08-04 23:55:00,58.8,55.0,30.15,NNE,22,0.0,0.0,87,0.00,CLR,,0.00,WeatherDisplay:10.37,2013-08-05 03:55:00,